TimeCDT,TemperatureF,Dew PointF,Humidity,Sea Level PressureIn,VisibilityMPH,Wind Direction,Wind SpeedMPH,Gust SpeedMPH,PrecipitationIn,Events,Conditions,WindDirDegrees,DateUTC
12:15 AM,66.6,58.1,74,29.85,10.0,South,12.7,19.6,N/A,,Mostly Cloudy,170,2013-03-17 05:15:00
12:35 AM,66.4,58.3,75,29.85,10.0,South,12.7,21.9,N/A,,Mostly Cloudy,170,2013-03-17 05:35:00
12:55 AM,66.4,58.5,76,29.85,10.0,South,16.1,24.2,N/A,,Overcast,170,2013-03-17 05:55:00
1:15 AM,66.2,58.5,76,29.84,10.0,South,15.0,20.7,N/A,,Overcast,170,2013-03-17 06:15:00
1:35 AM,66.0,58.3,76,29.85,10.0,South,12.7,18.4,N/A,,Overcast,170,2013-03-17 06:35:00
1:55 AM,65.8,58.3,77,29.84,10.0,South,12.7,19.6,N/A,,Overcast,170,2013-03-17 06:55:00
2:15 AM,65.7,58.3,77,29.84,10.0,South,10.4,16.1,N/A,,Overcast,170,2013-03-17 07:15:00
2:35 AM,65.8,58.5,77,29.83,10.0,South,13.8,19.6,N/A,,Overcast,180,2013-03-17 07:35:00
2:55 AM,66.0,58.3,76,29.83,10.0,South,8.1,18.4,N/A,,Overcast,170,2013-03-17 07:55:00
3:15 AM,65.8,58.5,77,29.83,10.0,South,10.4,-,N/A,,Overcast,180,2013-03-17 08:15:00
3:35 AM,65.7,58.5,78,29.83,10.0,South,10.4,18.4,N/A,,Overcast,180,2013-03-17 08:35:00
3:55 AM,65.7,58.8,79,29.82,10.0,South,11.5,19.6,N/A,,Overcast,190,2013-03-17 08:55:00
4:15 AM,65.1,59.2,81,29.82,10.0,South,10.4,-,N/A,,Overcast,180,2013-03-17 09:15:00
4:35 AM,64.6,59.4,83,29.81,10.0,South,10.4,-,N/A,,Overcast,180,2013-03-17 09:35:00
4:55 AM,64.8,59.2,82,29.81,10.0,South,11.5,24.2,N/A,,Overcast,180,2013-03-17 09:55:00
5:15 AM,64.9,59.2,82,29.81,10.0,South,11.5,17.3,N/A,,Overcast,180,2013-03-17 10:15:00
5:35 AM,64.6,59.4,83,29.82,10.0,South,9.2,-,N/A,,Overcast,180,2013-03-17 10:35:00
5:55 AM,64.4,59.4,84,29.82,10.0,South,8.1,-,N/A,,Overcast,180,2013-03-17 10:55:00
6:15 AM,64.4,59.4,84,29.83,10.0,South,6.9,-,N/A,,Overcast,180,2013-03-17 11:15:00
6:35 AM,64.4,59.4,84,29.83,10.0,South,4.6,-,N/A,,Overcast,180,2013-03-17 11:35:00
6:55 AM,64.4,59.4,84,29.83,10.0,SE,5.8,-,N/A,,Overcast,140,2013-03-17 11:55:00
7:15 AM,63.7,59.2,85,29.83,10.0,SE,4.6,-,N/A,,Overcast,140,2013-03-17 12:15:00
7:35 AM,63.5,59.2,86,29.84,10.0,SE,5.8,-,N/A,,Overcast,140,2013-03-17 12:35:00
7:55 AM,63.1,59.2,87,29.84,10.0,SSE,4.6,-,N/A,,Mostly Cloudy,150,2013-03-17 12:55:00
8:15 AM,63.1,59.4,87,29.84,10.0,SE,4.6,-,N/A,,Overcast,140,2013-03-17 13:15:00
8:35 AM,64.0,59.7,86,29.84,10.0,SSE,4.6,-,N/A,,Overcast,160,2013-03-17 13:35:00
8:55 AM,64.4,59.9,85,29.84,10.0,SSE,6.9,-,N/A,,Overcast,150,2013-03-17 13:55:00
9:15 AM,64.9,59.9,84,29.84,10.0,South,6.9,-,N/A,,Overcast,170,2013-03-17 14:15:00
9:35 AM,66.9,60.4,80,29.85,10.0,South,9.2,-,N/A,,Mostly Cloudy,170,2013-03-17 14:35:00
9:55 AM,67.1,60.4,79,29.85,10.0,South,10.4,16.1,N/A,,Mostly Cloudy,180,2013-03-17 14:55:00
10:15 AM,67.8,60.3,77,29.85,10.0,South,10.4,-,N/A,,Mostly Cloudy,180,2013-03-17 15:15:00
10:55 AM,68.5,60.8,76,29.85,10.0,South,12.7,19.6,N/A,,Overcast,170,2013-03-17 15:55:00
11:15 AM,68.2,60.8,77,29.85,10.0,South,10.4,-,N/A,,Overcast,190,2013-03-17 16:15:00
11:35 AM,68.4,60.6,76,29.85,10.0,South,9.2,19.6,N/A,,Overcast,180,2013-03-17 16:35:00
11:55 AM,67.6,60.3,77,29.85,10.0,South,10.4,18.4,N/A,,Overcast,190,2013-03-17 16:55:00
12:15 PM,67.3,60.8,80,29.85,10.0,South,10.4,16.1,N/A,,Overcast,170,2013-03-17 17:15:00
12:35 PM,67.1,61.0,81,29.84,10.0,South,9.2,16.1,N/A,,Overcast,180,2013-03-17 17:35:00
12:55 PM,67.1,61.0,81,29.83,10.0,South,10.4,-,N/A,,Overcast,170,2013-03-17 17:55:00
1:15 PM,67.3,61.3,81,29.82,10.0,SSE,9.2,-,N/A,,Overcast,160,2013-03-17 18:15:00
1:35 PM,68.2,62.1,81,29.81,10.0,South,10.4,-,N/A,,Overcast,170,2013-03-17 18:35:00
1:55 PM,69.3,61.7,77,29.80,10.0,South,8.1,16.1,N/A,,Mostly Cloudy,180,2013-03-17 18:55:00
2:15 PM,70.7,61.5,73,29.79,10.0,South,11.5,18.4,N/A,,Mostly Cloudy,190,2013-03-17 19:15:00
2:35 PM,72.9,61.0,66,29.77,10.0,SSW,17.3,23.0,N/A,,Scattered Clouds,200,2013-03-17 19:35:00
2:55 PM,73.6,60.8,64,29.76,10.0,South,13.8,19.6,N/A,,Mostly Cloudy,190,2013-03-17 19:55:00
3:15 PM,73.6,60.3,63,29.75,10.0,South,8.1,19.6,N/A,,Mostly Cloudy,170,2013-03-17 20:15:00
3:35 PM,75.6,59.2,57,29.74,10.0,South,11.5,18.4,N/A,,Overcast,180,2013-03-17 20:35:00
3:55 PM,75.2,59.0,57,29.73,10.0,South,12.7,-,N/A,,Overcast,190,2013-03-17 20:55:00
4:15 PM,75.4,59.0,57,29.72,10.0,South,8.1,-,N/A,,Overcast,190,2013-03-17 21:15:00
4:35 PM,76.5,59.2,55,29.72,10.0,SSW,6.9,-,N/A,,Mostly Cloudy,210,2013-03-17 21:35:00
4:55 PM,78.3,59.2,52,29.70,10.0,SSW,11.5,-,N/A,,Mostly Cloudy,210,2013-03-17 21:55:00
5:15 PM,77.9,59.4,53,29.70,10.0,SW,9.2,-,N/A,,Scattered Clouds,230,2013-03-17 22:15:00
5:35 PM,78.3,59.2,52,29.70,10.0,SW,10.4,-,N/A,,Mostly Cloudy,220,2013-03-17 22:35:00
5:55 PM,78.8,59.0,51,29.70,10.0,SW,8.1,-,N/A,,Scattered Clouds,230,2013-03-17 22:55:00
6:15 PM,78.3,58.6,51,29.70,10.0,SSW,8.1,-,N/A,,Scattered Clouds,200,2013-03-17 23:15:00
6:35 PM,76.6,59.0,54,29.70,10.0,SW,8.1,-,N/A,,Mostly Cloudy,220,2013-03-17 23:35:00
6:55 PM,77.0,59.2,54,29.70,10.0,SW,3.5,-,N/A,,Mostly Cloudy,230,2013-03-17 23:55:00
7:15 PM,75.9,59.2,56,29.70,10.0,WSW,3.5,-,N/A,,Mostly Cloudy,250,2013-03-18 00:15:00
7:35 PM,73.8,59.2,60,29.70,10.0,West,3.5,-,N/A,,Scattered Clouds,260,2013-03-18 00:35:00
7:55 PM,73.6,59.5,61,29.70,10.0,Calm,Calm,-,N/A,,Mostly Cloudy,0,2013-03-18 00:55:00
8:15 PM,71.2,59.5,66,29.71,10.0,Calm,Calm,-,N/A,,Mostly Cloudy,0,2013-03-18 01:15:00
8:35 PM,68.5,59.9,74,29.71,10.0,Calm,Calm,-,N/A,,Scattered Clouds,0,2013-03-18 01:35:00
8:55 PM,67.1,60.1,78,29.71,10.0,Calm,Calm,-,N/A,,Scattered Clouds,0,2013-03-18 01:55:00
9:15 PM,66.4,59.7,79,29.72,10.0,Calm,Calm,-,N/A,,Scattered Clouds,0,2013-03-18 02:15:00
9:35 PM,65.3,59.9,83,29.73,10.0,Calm,Calm,-,N/A,,Scattered Clouds,0,2013-03-18 02:35:00
9:55 PM,64.4,59.7,85,29.74,10.0,ESE,3.5,-,N/A,,Mostly Cloudy,120,2013-03-18 02:55:00
10:15 PM,66.7,59.9,79,29.74,10.0,SE,4.6,-,N/A,,Mostly Cloudy,130,2013-03-18 03:15:00
10:35 PM,68.0,60.8,78,29.73,10.0,SE,5.8,-,N/A,,Scattered Clouds,130,2013-03-18 03:35:00
10:55 PM,69.1,62.2,79,29.73,10.0,SSE,8.1,-,N/A,,Scattered Clouds,150,2013-03-18 03:55:00
11:15 PM,69.3,62.6,79,29.73,10.0,SSE,5.8,-,N/A,,Scattered Clouds,150,2013-03-18 04:15:00
11:35 PM,68.4,62.6,82,29.74,10.0,SSE,3.5,-,N/A,,Clear,150,2013-03-18 04:35:00
11:55 PM,67.6,62.6,84,29.74,10.0,SSE,4.6,-,N/A,,Clear,150,2013-03-18 04:55:00